Volver al catálogo

ATLAS 5 CENTAUR DEB

LostHEO
NORAD 47249·DEBRIS·🇺🇸 United States

Lanzado Oct 17, 2018 desde Cape Canaveral Space Force Station

Loading…

Próximos Pases (próximas 24 horas)

TLE

ObsoletoSource: Space-Track

Época: Apr 18, 2026, 21:44 UTC

1 47249U 18079EH  26108.90603871 -.00000117  00000-0  00000-0 0  9992
2 47249  13.8085  25.8767 4817675 328.1409  10.2352  1.82676653 35929

Sigue ATLAS 5 CENTAUR DEB en tiempo real con AllMySat

Download on the App Store